[[{"header":{"parameterUnit":"m.s-1","parameterCategory":1,"la1":30.2992,"la2":30.254,"lo1":-89.0895,"lo2":-89.0443,"dy":0.0025,"dx":0.0025,"nx":19,"ny":19,"refTime":"2026-03-26T09:00:00:Z","depth":0,"parameterNumber":2,"parameterNumberName":"U-component_of_WINDS"},"data":[0,0,0,-0.9243,-0.9246,-0.9377,-0.9378,-0.9538,-0.954,0,0,0,0,0,0,0,0,0,0,0,-0.9198,-0.9199,-0.9243,-0.9246,-0.9377,-0.9378,-0.9538,-0.954,0,0,0,0,0,0,0,0,0,0,0,-0.9198,-0.9199,-0.92,-0.9246,-0.9377,-0.9378,-0.9538,-0.9441,0,0,0,0,0,0,0,0,0,0,-0.9315,-0.9268,-0.9199,-0.92,-0.9247,-0.9377,-0.9378,-0.9437,-0.9447,-0.9475,0,-0.9497,0,-0.9521,-0.955,-0.955,0,0,0,-0.925,-0.9259,-0.93,-0.92,-0.9248,-0.9377,-0.9319,-0.9443,-0.9455,-0.9489,-0.95,-0.9506,-0.9524,-0.9551,-0.9551,-0.9695,-0.9696,0,0,-0.9243,-0.9219,-0.9292,-0.9307,-0.9286,-0.9315,-0.9323,-0.945,-0.9461,-0.95,-0.951,-0.9526,-0.9552,-0.9553,-0.9695,-0.9695,0,0,0,-0.9219,-0.9214,-0.9251,-0.93,-0.9325,-0.9319,-0.9328,-0.9455,-0.9469,-0.9512,-0.9528,-0.9553,-0.9554,-0.9694,-0.9695,-0.9695,0,0,0,-0.9215,-0.92,-0.9248,-0.9235,-0.9322,-0.9391,-0.933,-0.946,-0.9476,-0.9527,-0.9553,-0.9556,-0.9694,-0.9695,-0.9694,-0.9699,0,0,0,-0.9192,-0.9197,-0.9214,-0.9233,-0.9289,-0.939,-0.9411,-0.9464,-0.9485,-0.955,-0.9556,-0.9694,-0.9695,-0.9693,-0.9698,-0.9731,0,0,0,-0.916,-0.9212,-0.9214,-0.9279,-0.9287,-0.9389,-0.9411,-0.9487,-0.9543,-0.9553,-0.9694,-0.9695,-0.9693,-0.9697,-0.973,-0.9754,-0.9762,0,0,-0.9212,-0.9217,-0.9258,-0.9263,-0.9358,-0.937,-0.9466,-0.9539,-0.9568,-0.9651,-0.9655,-0.9695,-0.9698,-0.9731,-0.9814,-0.982,0,0,0,-0.9266,-0.9295,-0.9325,-0.9377,-0.9435,-0.9485,-0.9546,-0.9574,-0.9646,-0.9605,-0.9716,-0.9719,-0.9739,-0.9752,-0.9757,-0.9776,-0.97,-0.97,-0.97,-0.9306,-0.934,-0.9409,-0.9458,-0.9509,-0.9572,-0.9616,-0.9665,-0.9683,-0.9709,-0.9734,-0.9781,-0.9795,-0.9799,-0.9819,-0.975,-0.975,-0.975,-0.975,-0.9386,-0.9433,-0.9457,-0.9533,-0.9569,-0.9633,-0.9697,-0.9708,-0.9774,-0.9764,-0.9784,-0.977,-0.9805,-0.9824,-0.975,-0.975,-0.975,-0.975,-0.975,-0.9416,-0.9444,-0.9477,-0.9557,-0.9614,-0.9663,-0.9726,-0.9756,-0.9785,-0.9804,-0.9834,-0.9834,-0.9839,-0.9816,-0.9816,-0.9817,-0.9817,-0.9817,-0.9817,-0.9434,-0.9472,-0.952,-0.9586,-0.9625,-0.9679,-0.9744,-0.9783,-0.9833,-0.985,-0.9851,-0.9867,-0.9802,-0.9785,-0.982,-0.9819,-0.9819,-0.9819,-0.9818,-0.9504,-0.9493,-0.9568,-0.9606,-0.9688,-0.9743,-0.9782,-0.9858,-0.9894,-0.9924,-0.9937,-0.9884,-0.9891,-0.9887,-0.9873,-0.9929,-0.9929,-0.9929,-0.9929,-0.9529,-0.9536,-0.962,-0.9679,-0.9741,-0.9783,-0.9868,-0.992,-0.9972,-0.9997,-0.9994,-0.9978,-0.9972,-0.9983,-0.9977,-0.9965,-1.0043,-1.0043,-1.0043,-0.9574,-0.9588,-0.9654,-0.9705,-0.9771,-0.9828,-0.9909,-0.9977,-1.0034,-1.0048,-1.0018,-1.0013,-0.9988,-0.9978,-0.9991,-0.9981,-0.9959,0,0]},{"header":{"parameterUnit":"m.s-1","parameterCategory":1,"la1":30.2992,"la2":30.254,"lo1":-89.0895,"lo2":-89.0443,"dy":0.0025,"dx":0.0025,"nx":19,"ny":19,"refTime":"2026-03-26T09:00:00:Z","depth":0,"parameterNumber":3,"parameterNumberName":"V-component_of_WINDS"},"data":[0,0,0,-7.2954,-7.2958,-7.3155,-7.3156,-7.3403,-7.3405,0,0,0,0,0,0,0,0,0,0,0,-7.2896,-7.2898,-7.2953,-7.2958,-7.3155,-7.3156,-7.3402,-7.3405,0,0,0,0,0,0,0,0,0,0,0,-7.2895,-7.2897,-7.29,-7.2959,-7.3155,-7.3156,-7.3402,-7.3254,0,0,0,0,0,0,0,0,0,0,-7.3063,-7.3012,-7.2897,-7.29,-7.296,-7.3155,-7.3156,-7.3247,-7.3263,-7.3313,0,-7.336,0,-7.3387,-7.3421,-7.3422,0,0,0,-7.2957,-7.2998,-7.3051,-7.29,-7.2962,-7.3154,-7.3066,-7.3256,-7.3275,-7.3334,-7.3364,-7.3373,-7.3391,-7.3423,-7.3424,-7.3725,-7.3726,0,0,-7.2946,-7.2931,-7.3038,-7.3063,-7.3037,-7.306,-7.3072,-7.3267,-7.3297,-7.3364,-7.3379,-7.3395,-7.3425,-7.3427,-7.3723,-7.3725,0,0,0,-7.2916,-7.2923,-7.2972,-7.3053,-7.3089,-7.3065,-7.308,-7.3288,-7.3305,-7.3381,-7.3398,-7.3426,-7.3429,-7.3722,-7.3724,-7.3784,0,0,0,-7.2909,-7.2906,-7.2967,-7.2959,-7.3086,-7.3192,-7.3096,-7.3292,-7.3314,-7.3397,-7.3426,-7.3432,-7.372,-7.3723,-7.3779,-7.3814,0,0,0,-7.2883,-7.2903,-7.2932,-7.2958,-7.3043,-7.3189,-7.3217,-7.3297,-7.3325,-7.3423,-7.3432,-7.3719,-7.3722,-7.3775,-7.3807,-7.389,0,0,0,-7.2849,-7.298,-7.2932,-7.3084,-7.3041,-7.3226,-7.3216,-7.3354,-7.3445,-7.3427,-7.372,-7.3724,-7.3773,-7.3802,-7.3885,-7.3957,-7.3986,0,0,-7.3005,-7.2998,-7.3089,-7.3052,-7.3243,-7.3197,-7.3395,-7.3491,-7.3511,-7.3651,-7.3659,-7.3781,-7.3806,-7.3889,-7.4154,-7.4177,0,0,0,-7.3133,-7.3198,-7.3251,-7.334,-7.342,-7.349,-7.3558,-7.3594,-7.3714,-7.3582,-7.3834,-7.3849,-7.3898,-7.3933,-7.3953,-7.3996,-7.3739,-7.3739,-7.3739,-7.3329,-7.3354,-7.3506,-7.3554,-7.364,-7.3711,-7.3781,-7.3841,-7.3836,-7.3896,-7.3937,-7.4096,-7.4136,-7.4151,-7.4195,-7.3977,-7.3978,-7.3978,-7.3978,-7.3559,-7.3655,-7.3652,-7.3798,-7.3821,-7.3942,-7.4016,-7.4009,-7.4124,-7.4066,-7.411,-7.4044,-7.4175,-7.4215,-7.3983,-7.3982,-7.3981,-7.3981,-7.3981,-7.369,-7.3741,-7.3786,-7.3918,-7.4017,-7.406,-7.4173,-7.4189,-7.4204,-7.4248,-7.4294,-7.4293,-7.4294,-7.4269,-7.427,-7.4271,-7.4271,-7.4271,-7.4272,-7.3808,-7.3857,-7.3952,-7.405,-7.411,-7.4192,-7.4266,-7.4324,-7.4393,-7.4395,-7.4396,-7.4385,-7.4185,-7.4134,-7.428,-7.4279,-7.4278,-7.4277,-7.4276,-7.4032,-7.3985,-7.4131,-7.4192,-7.4309,-7.4407,-7.4428,-7.4546,-7.4597,-7.4651,-7.4633,-7.4483,-7.4474,-7.4459,-7.4417,-7.4628,-7.4628,-7.4628,-7.4628,-7.4142,-7.4142,-7.4296,-7.4393,-7.4489,-7.4524,-7.4686,-7.4745,-7.4798,-7.483,-7.4802,-7.4748,-7.4732,-7.4733,-7.4712,-7.4673,-7.4944,-7.4945,-7.4945,-7.4281,-7.4291,-7.4427,-7.4483,-7.4576,-7.4655,-7.4808,-7.4917,-7.4966,-7.4958,-7.4856,-7.4842,-7.4755,-7.4726,-7.4713,-7.468,-7.4608,0,0]}]]